Flag for Belgium Weather past 2 weeks in Antwerp, Belgium

Now
68 °F

Clear.


Feels Like: 68 °F
Forecast: 56 / 66 °F
Wind: 8 mph from Southeast

Location: Antwerp / Deurne

Current Time: Aug 31, 2015 at 5:20:41 AM

Latest Report: Aug 31, 2015 at 4:50 AM


Visibility: 10 mi

Pressure: 29.89 "Hg

Humidity: 83%

Dew point: 63 °F

Location of AntwerpLocation

Historic Weather in Antwerp — Graph

°F

Antwerp temperature yesterday

Maximum temperature yesterday: 84 °F (at 4:20 PM)
Minimum temperature yesterday: 63 °F (at 4:50 AM)
Average temperature yesterday: 73 °F

Past Weeks' High & Low Weather Summary

 TemperatureHumidityPressure
High84 °F (Aug 30, 4:20 PM)94% (Aug 24, 3:20 AM)30.24 "Hg (Aug 24, 3:20 AM)
Low48 °F (Aug 29, 6:20 AM)37% (Aug 22, 1:50 PM)29.45 "Hg (Aug 24, 3:50 PM)
Average65 °F71%29.96 "Hg
* Reported Aug 16 3:20 AM — Aug 31 3:50 AM, Antwerp, Weather by CustomWeather, © 2015

Note: Actual official high and low records may vary slightly from our data, if they occured in-between our weather recording intervals... More about our weather records

Advertising

Antwerp weather history for previous 24 hours

 ConditionsComfort  
Time TempWeatherWind HumidityBarometerVisibility
3:50 AM
Mon, Aug 31
70 °FClear.7 mph83%29.92 "Hg10 mi
3:20 AM70 °FClear.7 mph83%29.95 "Hg10 mi
2:50 AM70 °FClear.7 mph83%29.92 "Hg10 mi
2:20 AM70 °FPassing clouds.7 mph83%29.95 "HgN/A
1:50 AM72 °FPassing clouds.8 mph73%29.95 "HgN/A
1:20 AM72 °FPassing clouds.6 mph78%29.95 "HgN/A
12:50 AM73 °FClear.8 mph74%29.95 "Hg10 mi
12:20 AM73 °FMild.8 mph83%29.95 "Hg4 mi
11:50 PM
Sun, Aug 30
73 °FPassing clouds.9 mph83%29.95 "Hg4 mi
11:20 PM73 °FMild.7 mph83%29.95 "Hg3 mi
10:50 PM73 °FPassing clouds.7 mph83%29.95 "Hg4 mi
10:20 PM75 °FPassing clouds.6 mph83%29.95 "Hg4 mi
9:50 PM75 °FPassing clouds.3 mph83%29.95 "Hg4 mi
9:20 PM77 °FPassing clouds.5 mph79%29.95 "Hg5 mi
8:50 PM77 °FPassing clouds.5 mph79%29.95 "Hg6 mi
8:20 PM79 °FPassing clouds.6 mph74%29.95 "HgN/A
7:50 PM79 °FPassing clouds.8 mph74%29.95 "HgN/A
7:20 PM81 °FPassing clouds.5 mph66%29.95 "HgN/A
6:50 PM82 °FPassing clouds.5 mph62%29.95 "HgN/A
6:20 PM82 °FPassing clouds.5 mph66%29.95 "HgN/A
5:50 PM84 °FPassing clouds.3 mph62%29.98 "HgN/A
5:20 PM84 °FPassing clouds.2 mph58%29.98 "HgN/A
4:50 PM84 °FPassing clouds.3 mph62%29.98 "HgN/A
4:20 PM84 °FPassing clouds.2 mph58%29.98 "HgN/A
3:50 PM82 °FPassing clouds.5 mph58%29.98 "HgN/A
3:20 PM82 °FPassing clouds.5 mph58%29.98 "HgN/A
2:50 PM82 °FPassing clouds.5 mph58%29.98 "HgN/A
2:20 PM81 °FSunny.5 mph58%29.98 "Hg10 mi
1:50 PM81 °FSunny.3 mph62%29.98 "Hg10 mi
1:20 PM81 °FSunny.3 mph62%29.98 "Hg10 mi
12:50 PM79 °FPassing clouds.3 mph61%29.98 "HgN/A
12:20 PM77 °FPassing clouds.3 mph65%30.01 "HgN/A
11:50 AM75 °FPassing clouds.6 mph69%30.01 "HgN/A
11:20 AM73 °FPassing clouds.5 mph69%30.01 "HgN/A
10:50 AM72 °FSunny.3 mph73%30.01 "Hg10 mi
10:20 AM70 °FSunny.7 mph78%30.01 "Hg10 mi
9:50 AM70 °FSunny.8 mph78%30.01 "Hg10 mi
9:20 AM68 °FPassing clouds.6 mph78%30.01 "HgN/A
8:50 AM66 °FPassing clouds.5 mph83%30.01 "Hg4 mi
8:20 AM64 °FPassing clouds.6 mph88%30.01 "Hg4 mi
7:50 AM63 °FFog.7 mph88%30.04 "Hg2 mi
7:20 AM63 °FPassing clouds.8 mph88%30.04 "Hg4 mi
6:50 AM63 °FPassing clouds.8 mph88%30.04 "Hg4 mi
6:20 AM63 °FSprinkles. Overcast.8 mph88%30.01 "Hg4 mi
5:50 AM64 °FLight rain. Passing clouds.5 mph78%30.04 "Hg5 mi
5:20 AM63 °FClear.3 mph83%30.04 "Hg10 mi
Weather by CustomWeather, © 2015

See weather overviewHow to use our weather pages